Location: Wapato
(46.4478°N, 120.4212°W)
Time: 05:28:10
(UTC+00:00)

S-56A Canister/Altair - All Passes

Search period start: 10 May 2026 00:00
Search period end: 20 May 2026 00:00
Orbit: 633 x 2484 km, 38.9° (Epoch: 9 May)

Date Brightness Start Highest point End Pass type
(mag) Time Alt. Az. Time Alt. Az. Time Alt. Az.
10 May - 05:13:29 10° S 05:15:52 14° SSE 05:18:24 10° ESE visible
10 May - 07:13:53 10° SW 07:18:17 36° SSE 07:24:00 10° ESE visible
10 May - 09:16:11 10° WSW 09:21:24 40° S 09:28:51 10° ESE visible
10 May - 11:19:26 10° WSW 11:24:59 25° SSW 11:32:25 10° SSE visible
11 May - 04:39:54 10° SSE 04:41:12 11° SSE 04:42:31 10° SE visible
11 May - 06:39:26 10° SW 06:43:33 32° SSE 06:48:39 10° ESE night (unlit)
11 May - 08:41:38 10° WSW 08:46:32 39° S 08:53:22 10° ESE visible
11 May - 10:44:43 10° WSW 10:49:59 26° SSW 10:57:04 10° SSE visible
12 May - 06:04:59 10° SW 06:08:52 28° SSE 06:13:24 10° ESE visible
12 May - 08:07:05 10° WSW 08:11:43 39° S 08:17:57 10° ESE visible
12 May - 10:10:02 10° WSW 10:15:02 27° SSW 10:21:44 10° SSE visible
12 May - 12:16:59 10° SW 12:18:33 11° SSW 12:20:11 10° SSW daylight
13 May - 05:30:32 10° SW 05:34:11 25° SSE 05:38:13 10° ESE visible
13 May - 07:32:33 10° WSW 07:36:56 37° S 07:42:38 10° ESE night (unlit)
13 May - 09:35:24 10° WSW 09:40:07 27° SSW 09:46:26 10° SE visible
13 May - 11:41:11 10° SW 11:43:33 12° SSW 11:46:08 10° SSW visible
14 May - 04:56:05 10° SSW 04:59:30 22° SSE 05:03:07 10° ESE visible
14 May - 06:57:59 10° WSW 07:02:12 36° S 07:07:24 10° ESE visible
14 May - 09:00:46 10° WSW 09:05:16 28° SSW 09:11:10 10° SE visible
14 May - 11:05:51 10° SW 11:08:35 12° SSW 11:11:39 10° S visible
15 May - 04:21:38 10° SSW 04:24:50 19° SSE 04:28:03 10° ESE visible
15 May - 06:23:25 10° WSW 06:27:28 34° S 06:32:15 10° ESE visible
15 May - 08:26:10 10° WSW 08:30:26 29° SSW 08:35:57 10° SE night (unlit)
15 May - 10:30:45 10° SW 10:33:39 13° SSW 10:37:00 10° S visible
16 May - 03:47:10 10° SSW 03:50:08 17° SSE 03:53:01 10° ESE daylight
16 May - 05:48:48 10° WSW 05:52:47 33° S 05:57:11 10° ESE visible
16 May - 07:51:33 10° WSW 07:55:39 29° SSW 08:00:48 10° SE visible
16 May - 09:55:46 10° WSW 09:58:46 14° SSW 10:02:15 10° S visible
17 May - 03:12:43 10° S 03:15:26 15° SSE 03:18:00 10° ESE daylight
17 May - 05:14:09 10° SW 05:18:05 31° S 05:22:13 10° ESE visible
17 May - 07:16:55 10° WSW 07:20:54 30° S 07:25:43 10° SE visible
17 May - 09:20:52 10° WSW 09:23:54 15° SSW 09:27:27 10° S night (unlit)
18 May - 02:38:16 10° S 02:40:42 13° SSE 02:42:57 10° SE daylight
18 May - 04:39:26 10° SW 04:43:24 29° S 04:47:20 10° ESE visible
18 May - 06:42:15 10° WSW 06:46:11 30° S 06:50:42 10° SE visible
18 May - 08:46:02 10° WSW 08:49:05 16° SSW 08:52:40 10° SSE night (unlit)
19 May - 02:03:54 10° S 02:05:56 12° SSE 02:07:52 10° SE daylight
19 May - 04:04:40 10° SW 04:08:42 28° S 04:12:30 10° ESE visible
19 May - 06:07:33 10° WSW 06:11:28 31° S 06:15:45 10° SE visible
19 May - 08:11:13 10° WSW 08:14:18 17° SSW 08:17:52 10° SSE night (unlit)
